Regional Weather Roundup
Issued by NWS Northern Indiana

Home | Current Version | Previous Version | Graphics & Text | Print | Product List | Glossary On
Versions: 1 2 3 4 5 6 7 8 9 10 11 12 13 14 15 16 17 18 19 20 21 22 23 24 25 26 27 28 29 30 31 32 33 34 35 36 37 38 39 40 41 42 43 44 45 46 47 48 49 50
000
ASUS43 KIWX 271410
RWRIWX

KIWX WEATHER ROUNDUP
NATIONAL WEATHER SERVICE NORTHERN INDIANA
1000 AM EDT MON MAR 27 2017

NOTE: "FAIR" INDICATES FEW OR NO CLOUDS BELOW 12,000 FEET WITH NO
SIGNIFICANT WEATHER AND/OR OBSTRUCTIONS TO VISIBILITY.

* THESE STATIONS ARE NOT UNDER NWS QUALITY CONTROL. THEY ALSO MAY NOT
  REPORT WEATHER SUCH AS PRECIPITATION OR FOG.

INZ001>027-271500-
NORTHERN INDIANA

CITY           SKY/WX    TMP DP  RH WIND       PRES   REMARKS
GARY*          CLOUDY    52  46  82 CALM      29.95S
VALPARAISO     CLOUDY    51  49  92 NW3       29.94F
MICHIGAN CITY* CLOUDY    50  50 100 NW5       29.95S FOG
LAPORTE*       CLOUDY    49  48  95 SW7       29.95S FOG
KNOX*          CLOUDY    50  37  62 CALM      29.94F
SOUTH BEND     CLOUDY    50  49  96 SW7       29.95S
ELKHART*       CLOUDY    50  48  93 W7        29.94F FOG
GOSHEN         CLOUDY    51  47  86 SW10      29.95R
MONTICELLO*    PTSUNNY   52  47  85 CALM      29.95R
LOGANSPORT*    CLOUDY    50  46  87 CALM      29.97R
ROCHESTER*     CLOUDY    54  50  87 NW3       29.96R
WARSAW*        CLOUDY    50  48  93 W5        29.95S
ANGOLA*        CLOUDY    50  43  76 W7        29.94S
FORT WAYNE     CLOUDY    52  48  86 W7        29.97R
HUNTINGTON*    CLOUDY    52  50  93 W7        29.97R
PERU/GRISSOM   CLOUDY    52  52 100 VRB3      29.95R
MARION*        CLOUDY    52  49  89 SW5       29.98R

$$
INZ028>050-271500-
CENTRAL INDIANA

CITY           SKY/WX    TMP DP  RH WIND       PRES   REMARKS
LAFAYETTE      MOSUNNY   51  49  92 S3        29.96R
KOKOMO*        PTSUNNY   54  50  86 SW5       29.98R
MUNCIE*        CLOUDY    55  50  83 S3        29.98R
INDIANAPOLIS   PTSUNNY   54  50  86 SE7       29.97S

$$
MIZ043>046-050>051-056>058-064>065-071>073-077>080-271500-
SOUTHWEST LOWER MICHIGAN

CITY           SKY/WX    TMP DP  RH WIND       PRES   REMARKS
BATTLE CREEK   CLOUDY    49  49 100 SW8       29.93S FOG
BENTON HARBOR  FOG       42  40  92 NW3       29.96R VSB 1/2
COLDWATER*     CLOUDY    50  50 100 W6        29.93F FOG
HILLSDALE*     CLOUDY    48  46  93 SW5       29.93F FOG
HOLLAND        CLOUDY    41  39  93 W5        29.95S
GRAND RAPIDS   CLOUDY    42  42 100 W8        29.93S FOG
KALAMAZOO      CLOUDY    49  46  90 W7        29.94S FOG
STURGIS*       CLOUDY    49  49  99 W7        29.94R FOG
THREE RIVERS*  CLOUDY    50  50 100 W5        29.94S FOG

$$
OHZ001>008-015>018-024>025-271500-
NORTHWEST OHIO

CITY           SKY/WX    TMP DP  RH WIND       PRES   REMARKS
WAUSEON*       CLOUDY    54  50  87 W9G16     29.94F
DEFIANCE       CLOUDY    51  48  89 VRB6      29.96S
FINDLAY        CLOUDY    55  49  80 SW12      29.96R
TOLEDO EXPRESS CLOUDY    53  50  89 W12       29.94S
TOLEDO METCALF CLOUDY    55  52  89 SW10      29.95S
LIMA           CLOUDY    52  49  89 W10       29.98R

$$
AND FOR LAKE MICHIGAN COASTAL AND OPEN LAKE BUOY OBSERVATIONS

STATION/POSITION TEMP    WIND        PRES    VSBY  WAVE
                 AIR SEA DIR/SP/G                  HT/PER
                 (F)     (DEG/KT/KT) (MB)    (MI)  (FT/S)
CALUMET HARBOR    43     340/  4/  5 1013.5R
MICHIGAN CITY     45     300/  6/  6   N/A
BURNS HARBOR      46     290/  6/ 10 1014.2

$$
&&



USA.gov is the U.S. government's official web portal to all federal, state and local government web resources and services.